Los Angeles, CA

3:59 AM PST on February 13, 2016 (GMT -0800)
Los Angeles International

Weather History for KLAX - October, 2012

Change the Weather History Date:

Friday, October 5, 2012

  Actual Average Record
Temperature  
Mean Temperature 67 °F 67 °F  
Max Temperature 72 °F 73 °F 101 °F (1971)
Min Temperature 61 °F 61 °F 53 °F (2009)
Degree Days  
Heating Degree Days 0 1  
Month to date heating degree days 0 2  
Since 1 July heating degree days 5 11  
Cooling Degree Days 2 3  
Month to date cooling degree days 30 15  
Year to date cooling degree days 599 483  
Growing Degree Days 18 (Base 50)    
Moisture  
Dew Point 60 °F    
Average Humidity 77    
Maximum Humidity 93    
Minimum Humidity 61    
Precipitation  
Precipitation 0.00 in 0.01 in 0.61 in (2011)
Month to date precipitation 0.00 0.06  
Year to date precipitation 4.61 9.16  
Since 1 July precipitation T  
Sea Level Pressure  
Sea Level Pressure 30.02 in    
Wind  
Wind Speed 5 mph (West)    
Max Wind Speed 15 mph    
Max Gust Speed 18 mph    
Visibility 8 miles    
Events Fog    
T = Trace of Precipitation, MM = Missing Value Source: NWS Daily Summary

Daily Weather History Graph

Daily Weather History Graph

Search for Another Location

Airport or City:

Trip Planner

Search our weather history database for the weather conditions in past years. The results will help you decide how hot, cold, wet, or windy it might be!

Date:

Astronomy

Oct. 05, 2012 Rise Set
Actual Time 6:51 AM PDT 6:31 PM PDT
Civil Twilight 6:26 AM PDT 6:56 PM PDT
Nautical Twilight 5:57 AM PDT 7:25 PM PDT
Astronomical Twilight 5:28 AM PDT 7:54 PM PDT
Moon 10:11 PM PDT (10/5) 11:50 AM PDT (10/5)
Length of Visible Light 12h 30m
Length of Day
11h 40m
Waning Gibbous, 73% of the Moon is Illuminated
Oct 5
Waning Gibbous
Oct 8
Last Quarter
Oct 15
New
Oct 21
First Quarter
Oct 29
Full

Hourly Weather History & Observations

Time (PDT) Temp. Dew Point Humidity Pressure Visibility Wind Dir Wind Speed Gust Speed Precip Events Conditions
12:53 AM 64.9 °F 60.1 °F 84% 30.06 in 10.0 mi Calm Calm - N/A   Scattered Clouds
1:50 AM 64.4 °F 60.8 °F 88% 30.06 in 10.0 mi Calm Calm - N/A   Mostly Cloudy
1:53 AM 64.9 °F 60.1 °F 84% 30.06 in 10.0 mi Calm Calm - N/A   Mostly Cloudy
2:50 AM 62.6 °F 59.0 °F 88% 30.06 in 10.0 mi Calm Calm - N/A   Scattered Clouds
2:53 AM 63.0 °F 59.0 °F 87% 30.05 in 10.0 mi Calm Calm - N/A   Scattered Clouds
3:53 AM 62.1 °F 59.0 °F 90% 30.04 in 9.0 mi Calm Calm - N/A   Clear
4:14 AM 60.8 °F 57.2 °F 88% 30.04 in 9.0 mi East 3.5 mph - N/A   Mostly Cloudy
4:53 AM 63.0 °F 60.1 °F 90% 30.04 in 8.0 mi NE 4.6 mph - N/A   Mostly Cloudy
5:53 AM 64.0 °F 59.0 °F 84% 30.04 in 8.0 mi East 4.6 mph - N/A   Overcast
6:53 AM 64.0 °F 59.0 °F 84% 30.05 in 5.0 mi East 5.8 mph - N/A Fog Patches of Fog
7:53 AM 64.9 °F 59.0 °F 81% 30.05 in 5.0 mi Calm Calm - N/A Fog Patches of Fog
8:53 AM 64.9 °F 59.0 °F 81% 30.06 in 5.0 mi Calm Calm - N/A Fog Patches of Fog
9:15 AM 66.2 °F 57.2 °F 73% 30.07 in 5.0 mi Variable 4.6 mph - N/A Fog Patches of Fog
9:53 AM 68.0 °F 57.9 °F 70% 30.06 in 5.0 mi Variable 3.5 mph - N/A   Mostly Cloudy
10:08 AM 69.8 °F 57.2 °F 64% 30.06 in 5.0 mi Variable 5.8 mph - N/A   Haze
10:53 AM 71.1 °F 57.9 °F 63% 30.06 in 5.0 mi Calm Calm - N/A   Haze
11:53 AM 71.1 °F 59.0 °F 66% 30.04 in 5.0 mi West 8.1 mph - N/A   Haze
12:53 PM 71.1 °F 59.0 °F 66% 30.02 in 6.0 mi West 12.7 mph - N/A   Haze
1:53 PM 71.1 °F 59.0 °F 66% 30.00 in 7.0 mi West 11.5 mph - N/A   Scattered Clouds
2:53 PM 71.1 °F 59.0 °F 66% 29.98 in 10.0 mi West 11.5 mph - N/A   Scattered Clouds
3:53 PM 71.1 °F 59.0 °F 66% 29.96 in 10.0 mi WSW 10.4 mph - N/A   Mostly Cloudy
4:53 PM 69.1 °F 60.1 °F 73% 29.95 in 10.0 mi West 9.2 mph - N/A   Mostly Cloudy
5:53 PM 69.1 °F 60.1 °F 73% 29.94 in 10.0 mi West 8.1 mph - N/A   Mostly Cloudy
6:53 PM 68.0 °F 60.1 °F 76% 29.95 in 10.0 mi WSW 5.8 mph - N/A   Mostly Cloudy
7:53 PM 68.0 °F 61.0 °F 78% 29.95 in 10.0 mi WSW 5.8 mph - N/A   Scattered Clouds
8:53 PM 66.9 °F 61.0 °F 81% 29.96 in 10.0 mi WSW 3.5 mph - N/A   Mostly Cloudy
9:53 PM 66.9 °F 62.1 °F 84% 29.96 in 10.0 mi WSW 3.5 mph - N/A   Mostly Cloudy
10:53 PM 66.9 °F 62.1 °F 84% 29.96 in 10.0 mi North 3.5 mph - N/A   Scattered Clouds
11:53 PM 66.0 °F 61.0 °F 84% 29.96 in 10.0 mi ENE 3.5 mph - N/A   Partly Cloudy